Location: Bliar Creek Area
(43.2702°N, 93.1808°W)
Time: 21:16:06
(UTC+00:00)

Daily predictions for brighter satellites

Satellite Brightness Start Highest point End
(mag) Time Altitude Azimuth Time Altitude Azimuth Time Altitude Azimuth
Cosmos 2237 Rocket 2.6 12:00:27 10° SSW 12:06:02 66° ESE 12:11:39 10° NNE
Cosmos 1933 4.0 12:06:17 23° NW 12:07:51 32° W 12:11:23 10° SSW
ERS-2 1.4 12:05:43 10° NNE 12:08:39 88° ESE 12:11:34 10° SSW
ATLAS 3B R/B 4.0 12:05:56 18° WNW 12:08:49 23° NNW 12:14:37 10° NNE
CZ-4C R/B 4.0 12:02:57 10° NNW 12:09:32 40° NE 12:17:20 10° ESE
SAR-Lupe-2 4.0 12:06:12 10° NNE 12:09:47 66° ESE 12:13:19 10° S
PSLV R/B 3.5 12:07:34 10° N 12:11:50 63° WNW 12:16:03 10° SSW
Cosmos 2322 4.2 12:10:01 10° WSW 12:15:12 35° NW 12:20:24 10° N
Cosmos 1862 3.5 12:12:18 10° SSW 12:15:57 42° WNW 12:19:39 10° N
COSMO-SKYMED 1 3.5 12:12:15 10° SSW 12:15:58 28° W 12:18:43 15° NW
Cosmos 2151 2.8 12:11:51 10° SSW 12:16:02 77° W 12:20:16 10° N
Meteor 2-3 Rocket 4.3 12:11:31 10° SW 12:16:33 34° WNW 12:21:37 10° N
SeaSat 1 4.0 12:13:24 10° ESE 12:17:44 32° NE 12:22:05 10° N
USA 215 3.2 12:14:04 10° NE 12:20:37 84° NW 12:27:09 10° SW
Meteor 1-31 Rocket 4.0 12:17:27 10° NNE 12:21:07 45° E 12:24:45 10° S
SJ-7 4.4 12:19:35 10° NNE 12:23:42 87° WNW 12:27:47 10° SSW
BlueWalker 3 3.9 12:25:35 12° WSW 12:27:02 14° SW 12:29:10 10° SSW
SMAP 3.3 12:29:36 10° NNE 12:34:16 76° ESE 12:38:56 10° S
Cosmos 1842 Rocket 3.6 12:31:38 10° NNW 12:36:02 62° W 12:40:24 10° S
H-2A R/B 3.4 12:36:34 10° NNW 12:39:25 16° WNW 12:42:19 10° W
Helios 1B rocket 2.7 12:38:20 10° N 12:42:07 43° WNW 12:45:53 10° SW
CENTAUR R/B 3.5 12:34:43 10° NW 12:43:04 76° NE 12:52:18 10° SE
Cosmos 2219 Rocket 3.6 12:40:14 10° W 12:43:47 17° NW 12:47:22 10° N
Cosmos 1437 Rocket 3.1 12:41:09 10° SW 12:44:35 36° WNW 12:48:01 10° N
CZ-4B R/B 3.9 12:40:52 10° NNE 12:44:51 88° E 12:49:00 10° SSW
DELTA 2 DEB (DPAF) 4.5 12:47:15 10° S 12:51:19 43° W 12:55:26 10° NNW
USA 267 3.4 12:47:52 10° ESE 12:54:23 76° NE 13:00:57 10° NW
Cosmos 1302 Rocket 4.1 12:49:52 10° NNW 12:55:00 62° WSW 13:00:08 10° S
Cosmos 1943 Rocket 2.2 12:49:37 10° NNW 12:55:11 87° WSW 13:00:41 10° SSE
Cosmos 1461 3.3 12:52:08 10° SSW 12:56:36 77° ESE 13:00:59 10° NE
SL-16 R/B 3.0 12:56:46 10° S 13:02:20 58° ESE 13:07:55 10° NNE
NOSS 3-4 (A) 4.2 22:53:05 10° NW 23:00:11 80° WSW 23:08:18 10° SSE
NOSS 3-4 (C) 4.2 22:53:14 10° NW 23:00:16 80° WSW 23:08:17 10° SSE
Cosmos 2263 Rocket 2.2 22:56:25 10° SSW 23:01:57 79° ESE 23:07:33 10° NNE
PSLV R/B 3.8 22:59:49 10° S 23:04:02 75° WSW 23:08:20 10° NNW
CORIOLIS 4.5 23:00:33 10° SE 23:05:35 43° ENE 23:10:39 10° N
USA 234 3.9 23:00:58 10° ENE 23:07:04 40° SE 23:13:08 10° SSW
Cosmos 1140 Rocket 4.1 23:04:05 10° N 23:08:47 34° ENE 23:13:27 10° SE
Cosmos 1076 Rocket 3.5 23:05:18 10° N 23:09:40 73° E 23:13:59 10° SSE
SJ-7 4.4 23:06:28 10° SSE 23:10:24 63° ENE 23:14:23 10° N
Cosmos 2227 Rocket 3.7 23:05:47 10° WSW 23:10:52 33° NW 23:15:57 10° N
Cosmos 1602 4.1 23:08:59 10° N 23:12:31 39° ENE 23:16:02 10° SSE
Nadezhda 4 Rocket 4.2 23:11:28 10° SSE 23:17:19 49° E 23:23:10 10° NNE
ARGOS 4.3 23:12:48 10° S 23:18:04 50° W 23:23:21 10° NNW
Cosmos 1782 4.2 23:17:55 10° SE 23:20:37 18° E 23:23:21 10° NE
Cosmos 1500 3.0 23:18:37 10° N 23:22:09 84° W 23:25:41 10° S
DMSP B5D2-2 4.1 23:18:28 10° NNE 23:23:42 78° ESE 23:28:55 10° S
Cosmos 1603 4.2 23:21:14 10° NNW 23:26:34 38° ENE 23:31:47 10° SE
SL-8 R/B 3.7 23:22:04 10° WNW 23:26:51 77° NNE 23:31:39 10° ESE
Helios 1B rocket 3.0 23:24:06 10° S 23:27:58 59° WSW 23:31:53 10° NNW
Cosmos 1812 Rocket 4.0 23:24:33 10° SSE 23:28:34 39° E 23:32:38 10° NNE
Helios 1A 3.8 23:25:20 10° NE 23:29:02 30° E 23:32:43 10° SSE
ISS -3.3 23:27:16 10° WNW 23:30:36 65° SW 23:33:54 10° SE
CZ-4B R/B 3.6 23:27:24 10° SSE 23:30:54 56° ENE 23:34:29 10° N
CZ-4B R/B 3.8 23:32:28 10° SE 23:37:11 41° ENE 23:41:48 10° N
SMAP 3.0 23:33:30 10° SSE 23:38:09 86° E 23:42:50 10° NNW
SL-16 R/B 3.9 23:34:13 10° NW 23:39:24 37° WSW 23:44:33 10° S
NOAA 6 4.4 23:42:28 10° SE 23:47:13 40° ENE 23:51:58 10° N
Cosmos 1943 3.1 23:44:38 10° NNW 23:50:18 82° ENE 23:55:57 10° SSE
USA 276 3.0 23:48:21 10° WNW 23:50:28 25° NNW 23:51:20 21° NNE
APEX 2.7 23:51:45 10° SSW 23:54:46 65° WNW 23:56:40 18° NNE
